www.pogodaiklimat.ru

Погода и климат >> Архив погоды >> Мексика >> Orizaba


ПОГОДА в Orizaba

  • Прогноз погоды в Orizaba
  • Монитор погоды в Orizaba
  • Климат города

АРХИВ ПОГОДЫ в Orizaba

Время (UTC), дата Ветер
(напр.,м/с)
 
Видим.   Явления Облачность Т
(С)
Тd
(С)
f
(%)
Тe
(С)
Тes
(С)
Комфортность P
(гПа)
Po
(гПа)
Тmin
(С)
Tmax
(С)
R
(мм)
R24
(мм)
S
(см)
06 15.10 штиль 0 25 км гроза, ливневой дождь 10/4 300 м
[Cb cap As op]
+19.1 +19.0 99 +21 +21 комфорт 1010.7 876.1 19
09 15.10 штиль 0
{1}
30 км 3/0 2000 м
[Ac trans]
+17.9 +17.8 99 +18 +18 1010.1 874.8
12 15.10 З 1 30 км 4/0 2000 м
[Ac trans]
+16.9 +16.6 98 +18 +18 1011.6 875.3 +16.9 +27.5
15 15.10 В 1 30 км 10/1 700 м
[Cu hum Cs]
+23.5 +17.9 71 +28 +33 душно 1013.0 876.3
18 15.10 В 2 30 км 9/4 700 м
[Cu med, cong Cs]
+26.4 +19.9 67 +32 +40 очень
душно
1011.5 875.7 +16.9 +27.0
21 15.10 В 3 30 км 8/8 400 м
[Cb calv]
+25.1 +20.0 73 +31 +32 очень
душно
1008.7 874.0
00 16.10 В 2 25 км слабый дождь {морось} 9/8 300 м
[Cb calv As op]
+20.2 +18.6 91 +24 +24 комфорт 1008.4 874.3 8
03 16.10 В 1 25 км гроза, ливневой дождь 10/6 500 м
[Cb cap As op]
+20.0 +18.6 92 +24 +24 комфорт 1011.4 876.9 1
09 16.10 С 2 30 км зарница {морось} 3/1 700 м
[Cb calv Ac trans]
+16.5 +15.9 96 +17 +17 1012.7 876.4 0.1
12 16.10 С 2 30 км {морось} 5/0 2000 м
[Ac trans]
+16.3 +16.0 98 +16 +16 1013.3 876.3 0.1
15 16.10 С 2
{5}
30 км 9/0 2000 м
[Ac und Ci fib]
+20.0 +17.5 86 +24 +26 комфорт 1015.5 878.0
18 16.10 В 4 30 км в посл. час морось 9/3 600 м
[Cu med, cong Ac und Ci fib]
+22.6 +19.2 81 +29 +33 очень
душно
1013.8 876.9 0.0
21 16.10 В 3 15 км слабый ливневой дождь, в посл. час гроза 10/6 300 м
[Cb cap As op]
+21.8 +19.4 86 +27 +28 душно 1011.0 875.3 0.0
00 17.10 В 2 25 км слабая морось {гроза, дождь} 10/4 300 м
[St As op]
+18.6 +18.2 98 +20 +20 1012.2 876.5 13
03 17.10 С 1 25 км слабая морось 8/3 400 м
[St Ac und]
+17.9 +17.9 100 +19 +19 1013.8 877.9 2
06 17.10 штиль 0 30 км {морось} 4/0 2000 м
[]
+17.3 +17.3 100 +17 +17 1014.5 878.0 2
09 17.10 С 2
{4}
30 км 8/0 2000 м
[Ac und]
+16.4 +16.1 98 +16 +16 1013.8 876.6
12 17.10 С 2 30 км 8/0 2000 м
[Ac und]
+16.6 +16.3 98 +17 +17 1014.0 876.5 +16.3 +25.7
15 17.10 С 2
{3}
25 км слабая морось 10/4 600 м
[Sc As op]
+18.4 +17.7 96 +20 +20 1016.1 878.3 0.4
18 17.10 С 2 30 км {морось} 10/4 600 м
[Sc As op]
+21.2 +16.8 76 +25 +27 комфорт 1014.6 877.4 0.9
21 17.10 СВ 3
{7}
10 км слабая переохл. морось (гололёд) 10/10 500 м
[Frnb]
+19.8 +17.9 89 +23 +23 комфорт 1013.0 876.5 1
00 18.10 С 4 15 км в посл. час переохл. осадки {морось} 10/10 300 м
[St]
+18.6 +17.7 95 +19 +19 1012.7 876.5 5
03 18.10 С 2
{8}
30 км в посл. час морось 8/0 2000 м
[Ac und]
+19.9 +16.4 80 +23 +23 комфорт 1014.2 877.8 0.4
06 18.10 С 5 25 км слабая морось 10/4 300 м
[Frnb Ac As]
+19.0 +16.5 85 +20 +20 1015.3 878.6 1
09 18.10 ЮВ 1 30 км в посл. час морось 10/1 500 м
[St As op]
+19.5 +16.2 81 +23 +23 комфорт 1013.6 877.0 0.2
12 18.10 В 1 25 км слабая морось 10/10 600 м
[]
+18.7 +16.5 87 +21 +21 комфорт 1014.3 877.6 0.4
15 18.10 С 4
{8}
28 км {морось} 9/6 400 м
[St Ac trans]
+18.9 +16.8 88 +20 +21 1016.4 879.3 0.4
18 18.10 СВ 4 15 км слабая морось 10/10 300 м
[St]
+19.0 +17.2 89 +20 +20 1015.8 878.9 2
21 18.10 В 4
{8}
10 км дождь 10/10 300 м
[Frnb]
+19.0 +18.7 98 +21 +21 комфорт 1014.1 877.4 13
00 19.10 СВ 3 10 км в посл. час морось {дождь} 10/10 300 м
[St]
+18.8 +17.6 93 +20 +20 1014.1 877.5 14
03 19.10 С 3
{6}
30 км в посл. час морось 9/4 400 м
[St Ac trans]
+18.5 +17.2 92 +19 +19 1016.1 879.2 0.4
06 19.10 С 3 25 км слабая морось 10/3 300 м
[St As op]
+17.9 +17.9 100 +18 +18 1016.5 879.3 1
09 19.10 штиль 0 30 км слабая морось 8/3 500 м
[St Ac und]
+17.9 +17.2 96 +18 +18 1014.8 878.2 5
12 19.10 ЮВ 1 30 км в посл. час морось 9/3 300 м
[St Ac und]
+18.4 +17.1 92 +20 +20 1014.7 877.9 6
15 19.10 СВ 3
{6}
25 км слабая морось 10/6 400 м
[St As op]
+19.0 +17.2 89 +21 +21 комфорт 1017.2 879.7 0.1
18 19.10 СВ 4 20 км слабая морось 10/10 300 м
[St]
+19.9 +18.5 92 +23 +23 комфорт 1016.1 879.0 0.2
21 19.10 В 3
{6}
10 км дождь 10/10 400 м
[Frnb]
+18.6 +16.6 88 +20 +20 1014.4 877.7 14
00 20.10 СВ 2 10 км в посл. час переохл. осадки {дождь} 10/10 300 м
[St]
+18.0 +17.1 94 +19 +19 1013.3 876.9 14
03 20.10 штиль 0 25 км в посл. час морось {дождь} 9/3 500 м
[Frnb Ac As]
+17.4 +17.4 100 +17 +17 1016.1 879.2 2
06 20.10 штиль 0 30 км {дождь} 9/1 300 м
[St Ac As]
+17.4 +17.4 100 +17 +17 1015.8 878.6 2
09 20.10 штиль 0 5000 м слабая морось {дождь} 10/8 60 м
[Frnb As op]
+17.2 +17.2 100 +17 +17 1014.5 877.3 2
12 20.10 штиль 0 20 км слабый дождь 10/4 300 м
[Frnb As op]
+17.0 +17.0 100 +17 +17 1014.8 877.3 7
15 20.10 штиль 0 30 км в посл. час морось 9/9 500 м
[St]
+19.4 +18.9 97 +22 +22 комфорт 1016.4 878.8 0.1
18 20.10 В 3 15 км слабая морось 10/10 300 м
[Frnb]
+20.2 +17.7 86 +24 +24 комфорт 1015.6 878.4 0.1
21 20.10 В 3
{6}
10 км слабый дождь {морось} 10/4 300 м
[St As op]
+19.1 +18.7 98 +21 +22 комфорт 1013.4 876.7 3
03 21.10 штиль 0 25 км {морось} 10/5 500 м
[St As op]
+18.3 +17.3 94 +19 +19 1016.2 879.4 0.0
09 21.10 штиль 0 20 км {дождь} 10/5 400 м
[Frnb As op]
+17.4 +17.4 100 +17 +17 1015.2 878.0 1
12 21.10 штиль 0 25 км слабая морось {дождь} 10/4 300 м
[Frnb As op]
+17.4 +17.4 100 +17 +17 1014.8 877.4 4
15 21.10 СВ 3
{6}
10 км в посл. час морось 10/10 300 м
[St]
+18.4 +17.6 95 +19 +19 1017.3 879.6 0.4
18 21.10 В 3 15 км {морось} 9/9 300 м
[St]
+22.4 +18.9 81 +28 +29 душно 1016.2 879.1 0.4
21 21.10 В 3
{7}
30 км 8/4 400 м
[St Ac trans]
+22.4 +18.1 77 +28 +30 душно 1013.2 876.9
00 22.10 СВ 2 10 км дождь {морось} 10/10 300 м
[Frnb]
+18.1 +17.8 98 +19 +19 1013.9 877.7 23
03 22.10 штиль 0 20 км слабая морось 10/10 400 м
[Frnb]
+17.5 +17.5 100 +17 +17 1016.0 879.5 8

 

Местоположение метеостанции Orizaba (Мексика): широта 18.85 долгота -97.10 высота над уровнем моря 1259 м.

В архиве по умолчанию представлена погода в Orizaba за последнюю неделю. Архивные данные за месяц целиком и за предыдущие месяцы, начиная с января 2011 года, Вы можете получить, выбрав интересующий диапазон дат из раскрывающегося списка и нажав кнопку "Ввод!".


*Определитесь, кто Вы:
робот инопланетянин человек

Внимание! Время в таблицах - всемирное. Для получения местного времени необходимо прибавить поправку, которая в Orizaba равна -6 ч.

Смотрите также архив погоды в соседних городах и на ближайших метеорологических станциях:

Погода в Cordoba-In-Veracruz (Мексика) (19 км)
Погода в Jalapa (Мексика) (80 км)
Погода в Verakruz (Мексика) (109 км)
Погода в Puebla (Мексика) (114 км)
Погода в Tlaxcala Airport (Мексика) (130 км)
Погода в Tlaxcala (Мексика) (132 км)
Погода в Huajuapan De Leon (Мексика) (137 км)
Погода в Tulancingo (Мексика) (191 км)
Погода в Oaxaca (Мексика) (204 км)
Погода в Zacatepec (Мексика) (219 км)

Пояснения к столбцам:

Ветер - указаны скорость ветра в м/с - средняя за 10 мин, порывы в срок и между сроками (в фигурных скобках) и направление, откуда дует ветер: С - северный, СВ - северо-восточный, В - восточный, ЮВ - юго-восточный, Ю - южный, ЮЗ - юго-западный, З - западный, СЗ - северо-западный.
Видимость - горизонтальная дальность видимости в метрах или километрах. При видимости от 1 до 10 км при отсутствии осадков обычно наблюдается дымка, при ухудшении видимости до 1 км и менее - туман. В сухую погоду видимость может ухудшаться дымом, пылью или мглою.
Явления - указаны атмосферные явления, наблюдавшиеся в срок или в последний час перед сроком; фигурными скобками обозначены явления, наблюдавшиеся между сроками (за 1-3 часа до срока); квадратными скобками обозначены град или гололедные отложения с указанием их диаметра в мм.
Облачность - указаны через наклонную черту общая и нижняя облачность в баллах и высота нижней границы облаков в метрах; квадратными скобками обозначены формы облаков: Ci - перистые, Cs - перисто-слоистые, Cc - перисто-кучевые, Ac - высококучевые, As - высокослоистые, Sc - слоисто-кучевые, Ns - слоисто-дождевые, Cu - кучевые, Cb - кучево-дождевые. Подробнее классификацию облаков см. в Атласе облаков (PDF).
T - Температура воздуха - температура, измеренная на высоте 2 м над землей.
Td - Температура точки росы - температура, при понижении до которой содержащийся в воздухе водяной пар достигнет насыщения.
f - Относительная влажность воздуха - влажноcть воздуха, измеренная на высоте 2 м над землей.
Te - Эффективная температура - температура, которую ощущает одетый по сезону человек в тени. Характеристика душности погоды. При расчете учитывается влияние влажности воздуха и скорости ветра на теплоощущения человека.
Tes - Эффективная температура на солнце - температура, которую ощущает человек, с поправкой на солнечный нагрев. Характеристика знойности погоды. Зависит от высоты солнца над горизонтом, облачности и скорости ветра. Ночью, в пасмурную погоду, а также при ветре 12 м/с и более поправка равна нулю.
P - Атмосферное давление - приведенное к уровню моря атмосферное давление.
Po - Атмосферное давление - измеренное на уровне метеостанции атмосферное давление.
Tmin - Минимальная температура - минимум температуры воздуха на высоте 2 м над землей.
Tmax - Максимальная температура - максимум температуры воздуха на высоте 2 м над землей.
R - Количество осадков - Количество выпавших осадков за период времени, мм. При наведении курсора мыши на число - период времени, за который выпало указанное количество осадков.
R24 - Количество осадков - Количество выпавших осадков за 24 часа, мм.
S - Снежный покров - Высота снежного покрова, см. При наведении курсора мыши на число - состояние снежного покрова и степень покрытия местности в баллах.